Temperature
21 21 21 20 20 20 19 19 19 19 19 19 19 19 19 18 18 18 18 18 18 18 18 18 18 18 18 18 18 18 18 18 17 17 17 17 17 17 17 17 17 17 17
21 21 21 20 20 20 20 19 19 19 19 19 19 18 18 18 18 18 18 18 18 18 18 18 18 18 18 18 17 17 17 17 17 17 17 17 17 17 17 17 17 17 17
21 21 20 20 20 20 20 19 19 19 19 19 18 18 18 18 18 18 18 18 18 17 17 17 18 17 17 17 17 17 17 17 17 17 17 17 17 17 17 17 17 17 17
21 21 20 20 20 20 20 19 19 19 19 18 18 19 19 19 18 18 18 18 17 17 17 17 17 17 17 17 17 17 17 17 17 17 17 16 16 16 17 17 17 17 17
21 21 20 20 20 20 19 19 19 19 19 18 18 18 18 18 18 18 18 18 18 17 17 17 17 17 17 17 17 17 17 16 16 16 16 16 16 16 16 16 16 17 17
21 21 20 20 20 20 19 19 19 19 19 18 18 18 18 18 18 18 18 18 17 17 17 17 17 17 17 17 16 16 16 16 16 16 16 16 16 16 16 16 16 16 16
21 20 20 20 20 20 20 19 19 19 19 19 18 18 18 18 18 18 17 17 17 17 17 17 17 17 17 16 16 16 16 16 16 16 16 16 16 15 15 15 15 15 16
21 20 21 21 20 20 20 19 19 19 19 18 18 18 18 18 17 17 17 17 17 17 17 17 16 16 16 16 16 16 16 16 16 15 15 15 15 15 15 15 15 15 15
20 20 21 20 20 20 20 20 19 19 19 19 18 18 18 17 17 17 17 17 17 17 16 16 16 16 16 16 16 16 16 16 15 15 15 15 15 15 15 15 15 14 14
20 20 20 20 20 20 20 20 19 19 19 19 18 18 18 17 17 17 17 17 17 16 16 16 16 16 16 16 15 15 15 15 15 15 15 15 15 15 15 14 14 14 14
20 20 20 20 20 20 20 20 19 19 19 18 18 18 18 17 17 17 17 17 16 16 16 16 16 16 16 15 15 15 15 15 15 15 15 14 14 14 14 14 14 14 14
20 20 20 20 20 20 20 19 19 19 18 18 18 18 17 17 17 17 17 16 16 16 16 16 16 16 15 15 15 15 15 15 15 14 14 14 14 14 14 14 14 14 13
20 20 20 20 20 20 20 19 19 19 18 18 18 18 17 17 17 16 16 16 16 16 16 15 15 15 15 15 15 15 14 14 14 14 14 14 14 14 14 14 13 13 13
20 20 20 20 20 20 19 19 19 18 18 18 18 17 17 17 16 16 16 16 15 15 15 15 15 15 15 15 14 14 14 14 14 14 13 13 13 13 13 13 13 13 13
20 20 20 19 19 19 19 19 18 18 18 18 17 17 17 16 16 16 15 15 15 15 15 15 15 14 14 14 14 14 14 14 13 13 13 13 13 13 13 13 13 13 12
19 19 19 19 19 19 18 18 18 18 18 17 17 17 16 16 16 15 15 15 15 15 14 14 14 14 14 14 14 14 13 13 13 13 13 13 13 13 13 13 12 12 12
19 19 19 19 19 18 18 18 17 17 17 17 17 17 16 16 15 15 15 15 15 15 14 14 14 14 14 13 13 13 13 13 13 13 13 13 13 13 13 13 12 12 12
19 19 19 19 18 18 18 17 17 17 17 17 16 16 16 15 15 15 15 14 14 14 14 14 14 14 13 13 13 13 13 13 13 13 13 13 12 12 12 12 12 12 12
19 19 19 18 18 18 18 17 17 17 16 16 16 16 16 15 15 15 14 14 14 14 14 14 13 13 13 13 13 13 13 12 12 12 12 12 12 12 12 12 12 12 12
18 18 18 18 18 18 17 17 17 16 16 16 15 15 15 15 14 14 14 14 14 14 13 13 13 13 13 13 13 12 12 12 12 12 12 12 12 12 12 12 12 12 12
18 18 18 18 17 17 17 17 16 16 16 15 15 15 14 14 14 14 13 13 13 13 13 13 13 13 13 13 13 12 12 12 12 12 12 12 12 12 12 11 11 11 11
18 18 17 17 17 17 16 16 16 16 15 15 15 14 14 14 13 13 13 13 13 13 13 13 13 13 12 12 12 12 12 12 12 12 12 12 11 11 11 11 11 11 11
17 17 17 17 16 16 16 16 16 15 15 14 14 14 14 13 13 13 13 13 13 13 13 12 12 12 12 12 12 12 12 11 11 11 11 11 11 11 11 11 11 11 11
17 17 17 16 16 16 16 15 15 15 14 14 14 13 13 13 13 13 12 12 12 12 12 12 12 12 12 12 12 11 11 11 11 11 11 11 11 10 10 10 10 10 10
16 16 16 16 16 15 15 15 15 14 14 14 13 13 13 13 12 12 12 12 12 12 12 12 12 12 12 11 11 11 11 11 11 11 11 11 10 10 10 10 10 10 10
16 16 16 15 15 15 15 15 14 14 14 13 13 13 12 12 12 12 12 12 12 11 11 11 11 11 11 11 11 10 10 10 10 10 10 10 10 10 9 9 9 9 9
Wind_Speed
4 3 3 3 3 3 3 3 3 2 2 2 1 1 1 1 2 2 2 2 2 1 1 1 1 1 1 1 1 1 1 2 1 1 2 1 1 0 0 0 0 1 2
2 2 2 3 3 3 3 3 3 2 2 2 1 1 1 0 1 1 2 2 2 2 1 1 1 1 1 2 2 1 1 1 2 1 1 2 2 1 1 0 0 1 1
4 3 3 3 3 3 3 3 2 2 2 2 2 2 2 2 2 2 2 2 2 2 1 1 1 1 1 1 1 1 1 1 1 1 1 1 1 2 1 1 1 1 1
3 3 3 3 3 3 3 2 2 2 2 2 2 3 2 1 1 1 1 2 2 2 2 2 2 2 2 1 1 2 1 1 1 1 1 0 1 0 2 2 1 1 1
4 4 4 4 3 3 3 2 2 2 2 2 3 3 1 1 0 1 1 2 2 2 2 2 1 1 1 1 1 2 2 1 1 0 0 0 1 1 1 2 3 2 2
4 4 3 3 2 2 2 2 3 2 2 2 2 3 2 1 0 1 1 1 1 1 1 1 1 1 1 1 0 1 2 1 1 1 1 1 1 1 1 2 2 2 2
4 4 4 4 4 3 3 2 2 2 2 2 2 2 2 2 2 2 1 0 1 1 1 0 0 0 0 1 1 1 1 1 1 1 1 1 0 0 1 1 1 2 2
4 5 5 5 4 4 4 3 3 2 1 2 2 2 2 2 2 2 1 1 1 1 1 0 0 0 0 1 1 1 1 1 1 1 0 0 0 0 1 1 1 1 2
4 4 4 4 4 4 3 4 3 2 2 2 1 1 1 1 1 1 1 1 1 1 0 0 0 0 0 1 1 1 1 1 1 0 0 0 1 1 1 1 1 2 2
4 4 4 4 3 3 3 3 3 3 2 2 1 1 1 1 1 0 0 1 1 1 1 1 1 1 0 0 1 0 0 1 0 0 0 1 1 1 1 1 1 2 3
4 4 3 3 3 3 3 3 2 2 2 1 1 1 1 0 1 0 1 1 1 1 0 0 0 0 1 0 0 1 0 0 1 1 1 2 2 1 1 1 1 1 2
3 3 3 3 3 3 3 3 2 2 2 2 2 2 1 1 1 1 1 1 1 1 1 1 0 1 1 1 1 1 1 1 1 2 1 3 2 2 2 1 2 2 3
2 2 2 2 3 3 3 3 3 2 2 2 2 2 1 1 1 1 1 1 1 1 1 1 1 1 1 1 1 1 1 1 2 2 2 3 2 3 2 2 2 2 2
3 3 2 2 2 2 3 3 2 3 3 2 2 1 1 1 0 1 1 1 1 1 1 1 2 2 1 1 1 1 1 2 2 3 3 3 3 4 4 3 4 3 3
2 2 3 2 2 2 2 3 2 2 3 3 2 2 1 1 0 0 1 1 1 1 1 1 2 2 1 1 1 1 2 2 3 3 4 4 4 4 3 3 3 3 3
2 2 2 2 2 3 3 3 2 2 3 3 3 2 1 1 0 0 0 1 1 1 1 1 1 2 2 2 1 1 1 2 2 3 4 4 4 4 4 5 5 4 4
2 2 3 3 3 3 3 3 3 2 2 2 2 2 2 1 1 1 0 0 1 1 1 2 2 2 3 3 3 2 1 1 2 3 3 4 4 4 4 5 5 5 6
3 2 2 2 2 2 2 2 2 2 2 1 1 2 2 1 1 1 0 0 1 1 1 2 2 2 3 3 3 2 1 2 3 3 3 3 4 4 4 4 4 5 5
3 3 3 2 2 2 3 3 2 2 1 1 1 1 2 2 1 1 1 1 0 1 1 1 1 2 3 4 3 2 1 2 3 3 3 3 4 6 4 3 5 6 6
1 1 2 2 2 1 3 4 3 2 1 2 2 1 2 2 2 1 1 0 0 0 1 2 1 1 2 3 2 2 1 2 3 4 4 4 4 6 5 3 4 6 7
2 2 3 2 1 2 3 4 3 2 2 1 1 1 1 2 2 1 1 0 1 1 1 2 2 2 2 2 2 2 0 1 2 3 4 4 6 6 5 4 4 6 6
1 3 3 1 1 2 4 3 2 2 1 2 1 1 0 1 1 1 1 1 1 1 1 2 3 3 3 2 2 2 1 1 2 3 4 4 7 7 6 4 5 6 5
2 2 3 2 1 1 3 3 2 1 2 2 1 1 1 1 1 1 1 1 1 0 1 2 2 3 3 3 3 3 3 3 2 3 5 6 6 5 4 4 5 4 2
2 2 3 2 1 0 1 2 2 2 3 2 1 0 1 1 1 1 1 0 0 0 1 1 2 2 3 3 3 2 2 3 3 3 4 5 3 3 3 4 4 3 2
2 3 3 2 1 1 0 1 2 3 3 2 1 0 0 0 1 1 1 2 2 2 2 3 3 2 3 4 4 2 2 2 2 3 2 2 3 4 4 4 4 3 3
2 2 2 2 2 1 1 1 2 4 4 2 1 1 0 0 0 1 2 3 2 3 3 3 3 3 4 4 3 3 4 4 2 1 2 3 3 3 4 4 4 4 4
Wind_Direction
227 196 186 169 149 151 154 157 148 135 117 108 116 93 25 21 29 30 24 21 24 27 76 49 46 63 80 43 55 76 50 31 29 49 18 6 22 283 275 249 252 267 249
218 203 187 166 168 169 166 157 157 154 149 159 161 141 111 54 41 10 20 32 41 37 57 66 65 69 78 50 41 66 67 37 52 85 67 358 351 345 342 322 335 320 272
204 201 183 182 168 168 175 178 172 157 149 137 108 85 60 34 21 13 10 10 32 49 49 64 86 85 99 82 39 58 94 80 30 62 117 131 265 318 332 356 2 336 296
192 186 177 172 175 183 169 166 164 151 140 133 130 128 131 167 271 296 336 0 20 37 50 61 73 73 85 88 59 69 71 98 53 7 37 152 174 190 319 329 327 292 262
188 183 182 184 180 171 165 173 156 151 152 149 158 151 157 194 305 9 12 3 9 31 56 78 81 77 79 72 61 70 77 95 113 104 92 75 48 79 204 296 320 317 286
182 181 173 160 161 152 151 155 153 174 176 169 167 169 180 180 88 347 338 344 348 358 13 83 80 85 92 80 66 85 91 92 95 92 87 103 112 207 198 246 290 305 307
175 178 174 175 181 179 172 160 161 198 198 181 188 193 197 198 214 239 238 266 311 314 314 341 109 270 196 111 93 92 83 88 98 117 139 134 182 187 176 201 267 292 305
171 179 184 182 185 190 185 179 185 206 204 194 211 210 200 205 231 241 229 223 240 262 274 227 231 252 139 110 104 101 109 86 89 76 106 135 290 229 180 181 187 302 311
171 175 176 175 174 178 185 186 187 197 202 197 194 210 233 221 227 242 220 241 259 259 326 188 183 325 60 116 128 123 155 130 134 175 173 294 298 288 253 220 191 190 273
165 172 179 182 185 178 170 157 167 186 184 172 183 189 210 222 215 169 219 256 293 336 14 22 28 9 1 188 153 174 242 137 229 226 117 298 298 299 275 247 230 205 210
174 178 183 182 172 153 154 151 146 137 130 142 139 104 72 98 105 176 255 265 299 308 316 315 6 340 320 301 182 232 217 195 301 307 294 286 283 287 288 266 240 230 213
169 164 161 153 146 149 148 149 155 151 146 128 112 103 78 62 58 16 307 272 270 287 275 270 253 257 275 270 248 254 253 226 260 274 280 289 287 282 278 262 262 253 234
152 145 143 153 159 162 164 164 166 172 162 132 118 89 66 72 47 1 353 345 325 321 312 286 261 262 263 248 240 230 242 244 264 270 261 271 275 280 276 261 260 260 261
162 154 162 179 177 167 162 165 176 173 165 147 135 141 230 239 246 353 0 348 338 323 316 311 284 267 256 240 239 231 246 261 269 271 265 263 259 261 264 264 259 255 258
164 170 180 196 185 169 167 165 169 172 168 159 165 199 225 235 260 1 334 341 350 342 316 322 312 296 262 246 243 240 251 267 281 285 278 270 271 270 265 269 258 249 254
206 207 199 205 201 193 191 184 183 178 162 167 179 186 175 178 219 271 303 354 350 345 359 355 341 333 323 329 320 263 261 265 275 289 293 287 288 292 284 279 272 254 249
211 216 215 218 220 208 195 196 203 189 169 175 174 168 168 179 212 210 63 36 356 4 358 345 359 347 337 348 354 1 326 306 296 290 294 298 301 296 286 286 284 276 263
194 211 222 227 217 186 171 170 153 153 153 164 184 191 186 207 220 163 140 299 323 352 348 341 344 343 339 352 355 359 0 327 313 305 295 294 300 304 304 294 294 287 278
193 204 201 194 171 162 151 140 136 131 138 183 218 217 196 201 187 180 233 262 301 1 353 340 333 337 329 345 357 18 3 328 314 309 308 298 298 306 314 305 297 298 296
153 155 143 120 131 150 136 133 131 128 182 220 220 204 180 175 178 199 228 304 92 5 343 343 332 310 312 337 4 24 15 329 320 320 316 306 299 306 311 298 290 289 290
143 121 117 117 147 148 137 140 144 180 215 206 159 147 151 165 169 162 139 78 59 40 11 356 343 324 304 319 337 356 16 290 309 317 316 315 319 313 308 290 275 274 284
111 114 112 100 122 136 135 142 177 204 140 113 103 104 126 163 135 118 54 42 63 36 353 350 341 334 323 318 327 337 320 288 277 291 302 309 319 323 319 309 295 291 289
146 128 128 109 82 124 136 157 196 142 121 111 102 83 44 48 96 117 98 30 41 27 327 329 321 322 331 333 336 336 334 327 300 292 303 311 321 331 338 336 326 317 309
141 126 120 109 112 32 95 170 166 141 132 130 132 127 93 49 50 61 95 146 231 276 309 300 299 310 324 324 332 334 340 341 326 321 321 321 331 351 350 347 342 334 325
140 139 145 160 202 179 160 165 150 136 136 143 160 202 108 82 28 1 309 259 249 224 228 255 254 267 289 285 274 286 312 316 312 323 335 353 353 353 351 346 342 338 339
154 157 159 175 209 201 185 173 149 142 144 155 179 197 219 21 52 2 346 336 290 278 254 241 240 258 257 284 302 292 291 294 297 345 336 328 327 320 320 325 328 329 331
Height
1507 1508 1509 1509 1510 1510 1511 1511 1512 1513 1513 1514 1514 1514 1515 1515 1515 1515 1515 1515 1515 1514 1514 1514 1514 1513 1513 1513 1512 1512 1511 1511 1510 1510 1510 1510 1510 1510 1511 1511 1511 1512 1512
1506 1507 1509 1509 1509 1510 1511 1511 1512 1513 1514 1514 1515 1515 1515 1515 1515 1515 1515 1515 1515 1514 1514 1513 1513 1513 1513 1512 1512 1511 1511 1510 1510 1510 1509 1509 1510 1510 1510 1510 1510 1511 1511
1505 1506 1507 1508 1509 1510 1510 1511 1512 1513 1514 1515 1515 1515 1515 1515 1515 1515 1515 1514 1514 1514 1513 1513 1513 1512 1512 1512 1511 1511 1510 1510 1510 1510 1510 1509 1509 1509 1509 1509 1509 1509 1510
1504 1505 1506 1507 1508 1509 1510 1511 1512 1513 1514 1515 1515 1515 1515 1514 1514 1514 1514 1514 1514 1513 1513 1512 1512 1512 1511 1511 1511 1510 1510 1510 1509 1509 1509 1510 1509 1509 1508 1509 1508 1508 1508
1503 1504 1505 1506 1507 1509 1510 1511 1512 1512 1513 1514 1514 1514 1514 1514 1514 1514 1514 1513 1513 1513 1512 1512 1511 1511 1510 1510 1510 1509 1509 1509 1509 1509 1508 1508 1508 1508 1508 1507 1507 1507 1507
1502 1503 1505 1506 1507 1508 1509 1510 1511 1512 1513 1513 1514 1514 1514 1514 1514 1513 1513 1513 1512 1512 1511 1511 1510 1510 1509 1509 1509 1508 1508 1508 1508 1508 1508 1508 1507 1507 1507 1506 1505 1505 1505
1501 1502 1503 1505 1506 1507 1509 1510 1510 1511 1512 1512 1513 1513 1513 1513 1513 1513 1512 1512 1511 1511 1510 1510 1510 1509 1508 1508 1508 1507 1507 1507 1507 1507 1506 1506 1506 1506 1506 1505 1504 1503 1503
1499 1501 1502 1504 1505 1506 1508 1509 1509 1510 1511 1512 1512 1512 1513 1512 1512 1512 1511 1511 1510 1510 1510 1509 1509 1508 1507 1507 1507 1506 1506 1506 1505 1505 1505 1505 1505 1505 1504 1504 1503 1502 1501
1498 1500 1501 1503 1504 1505 1506 1508 1508 1509 1510 1510 1511 1511 1511 1511 1511 1511 1511 1510 1509 1509 1508 1508 1507 1507 1506 1506 1506 1505 1504 1504 1504 1504 1504 1503 1503 1503 1502 1502 1502 1502 1500
1498 1499 1500 1502 1504 1505 1506 1507 1507 1508 1509 1510 1510 1510 1510 1510 1510 1509 1509 1509 1508 1508 1507 1506 1506 1505 1505 1504 1504 1504 1504 1503 1503 1502 1502 1501 1501 1501 1500 1500 1500 1499 1498
1496 1498 1500 1501 1503 1504 1505 1506 1507 1508 1508 1508 1509 1509 1509 1509 1509 1508 1507 1507 1506 1506 1505 1505 1504 1503 1502 1502 1502 1502 1502 1502 1501 1501 1500 1499 1499 1498 1498 1497 1497 1497 1496
1496 1498 1499 1500 1501 1503 1504 1505 1506 1506 1507 1508 1508 1508 1508 1508 1507 1507 1506 1505 1504 1504 1503 1503 1502 1501 1501 1500 1500 1500 1500 1499 1499 1498 1498 1497 1497 1496 1496 1495 1494 1494 1493
1496 1497 1498 1499 1500 1501 1502 1503 1505 1505 1506 1507 1506 1506 1506 1505 1505 1505 1504 1504 1503 1502 1502 1501 1500 1499 1499 1498 1498 1497 1497 1496 1496 1496 1495 1495 1494 1493 1493 1492 1491 1491 1490
1495 1496 1497 1498 1499 1500 1501 1502 1503 1504 1505 1505 1505 1505 1504 1504 1503 1503 1503 1502 1501 1500 1500 1499 1498 1497 1497 1496 1495 1495 1495 1494 1494 1493 1493 1492 1491 1491 1490 1489 1488 1488 1487
1494 1495 1496 1497 1498 1499 1499 1500 1501 1502 1502 1503 1503 1503 1503 1502 1502 1501 1501 1500 1499 1498 1498 1497 1496 1496 1495 1494 1494 1493 1492 1491 1491 1490 1490 1489 1488 1488 1487 1486 1485 1484 1483
1493 1494 1495 1496 1497 1497 1498 1498 1499 1500 1500 1500 1500 1500 1500 1500 1500 1499 1499 1498 1498 1497 1496 1495 1495 1494 1493 1492 1492 1491 1490 1489 1488 1487 1487 1486 1486 1485 1484 1483 1482 1482 1480
1492 1493 1493 1494 1495 1496 1497 1497 1498 1498 1498 1498 1498 1498 1498 1498 1497 1497 1497 1496 1495 1495 1494 1494 1493 1492 1491 1491 1490 1489 1488 1487 1485 1484 1484 1483 1482 1481 1481 1480 1479 1478 1476
1491 1491 1492 1493 1494 1495 1495 1497 1497 1497 1497 1497 1496 1496 1496 1495 1495 1494 1494 1494 1493 1493 1492 1491 1491 1490 1489 1489 1488 1487 1486 1485 1483 1482 1481 1480 1479 1478 1477 1476 1475 1473 1472
1489 1490 1491 1491 1492 1493 1493 1495 1495 1495 1495 1495 1495 1494 1493 1493 1492 1492 1492 1492 1491 1491 1490 1490 1489 1488 1488 1487 1486 1485 1484 1483 1481 1480 1479 1477 1476 1475 1474 1472 1471 1469 1468
1487 1488 1489 1490 1490 1491 1491 1492 1492 1493 1493 1493 1493 1492 1491 1491 1490 1490 1490 1490 1490 1489 1489 1488 1487 1487 1486 1485 1484 1483 1482 1480 1479 1478 1477 1475 1473 1472 1470 1469 1467 1465 1464
1486 1486 1487 1488 1488 1489 1490 1490 1490 1491 1492 1492 1491 1490 1489 1489 1489 1489 1488 1488 1488 1487 1487 1486 1486 1485 1484 1483 1482 1481 1480 1478 1477 1475 1474 1473 1471 1469 1467 1466 1464 1462 1461
1484 1485 1485 1487 1487 1488 1488 1488 1489 1490 1490 1490 1489 1489 1488 1488 1487 1487 1487 1486 1486 1486 1485 1484 1483 1483 1482 1481 1480 1479 1478 1476 1475 1473 1472 1470 1468 1466 1465 1463 1461 1460 1458
1483 1484 1484 1485 1486 1486 1487 1487 1488 1488 1488 1488 1488 1487 1487 1486 1486 1486 1485 1485 1484 1484 1483 1482 1482 1481 1480 1479 1478 1477 1476 1474 1472 1471 1469 1468 1466 1464 1462 1460 1458 1457 1455
1481 1482 1483 1483 1484 1485 1485 1486 1487 1487 1487 1487 1486 1486 1486 1485 1485 1484 1484 1483 1483 1482 1481 1480 1480 1479 1478 1477 1476 1475 1474 1472 1471 1469 1467 1465 1464 1462 1459 1457 1455 1453 1452
1480 1481 1481 1482 1482 1483 1484 1485 1485 1485 1485 1485 1485 1485 1484 1484 1483 1483 1483 1482 1481 1480 1479 1479 1478 1477 1476 1475 1474 1473 1472 1470 1469 1467 1465 1463 1461 1458 1456 1454 1452 1450 1449
1478 1479 1480 1481 1481 1482 1482 1483 1483 1483 1483 1483 1483 1483 1483 1482 1482 1482 1481 1481 1480 1479 1478 1478 1476 1475 1474 1473 1472 1471 1470 1468 1467 1464 1462 1460 1458 1456 1454 1452 1450 1448 1446